Volver al catálogo

STARLINK-35597

ActivoComunicacionesVLEO
NORAD 66493·PAYLOAD·🇺🇸 United States

Lanzado Nov 15, 2025 desde Cape Canaveral Space Force Station

Loading…

Próximos Pases (próximas 24 horas)

TLE

ActualizadoSource: CelesTrak SupGP

Época: Sep 15, 2026, 04:09 UTC

1 66493C 25263J   26258.17340278  .00048982  00000+0  17738-2 0  2587
2 66493  43.0015   0.8723 0001489 262.0184 138.3429 15.27560352    15

Sigue STARLINK-35597 en tiempo real con AllMySat

Download on the App Store